Home / Local Weather & Traffic / California / Fall River Mills Past Weather

Fall River Mills Past Weather

Last 30 Days

 
High: 86ºf @2:54 PM    Low: 54ºf @5:54 AM     Approx. Precipitation / Rain Total: in.
Time (PDT)Temp. (ºf)Humidity (%)Dew Point (ºf)Barometer (inHG)Wind Speed (mph)Wind DirectionWind Gust (mph)1hr. Precip / Rain Total (in.)Snow Depth
2:54 PM862647.09-0.87w8.69--
1:54 PM842443.3-3.48nw13.9--
12:54 PM812339.69-3.48nw12.17--
11:54 AM793246.6-2.61nnw12.17--
10:54 AM764452.49-2.61wnw8.69--
9:54 AM715051.41-2.61wnw12.17--
8:54 AM695351.15-2.61nw7.82--
6:54 AM557848.27---2.61--
5:54 AM547746.95---1.74--
4:54 AM577047.31---5.21--
3:54 AM576946.93---5.21--
2:54 AM586747.1-0.87nne5.21--
1:54 AM606146.51-0.87nne3.48--
12:54 AM635546.57-0.87n7.82--
High: 83ºf @2:54 PM    Low: 59ºf @5:54 AM     Approx. Precipitation / Rain Total: in.
Time (PDT)Temp. (ºf)Humidity (%)Dew Point (ºf)Barometer (inHG)Wind Speed (mph)Wind DirectionWind Gust (mph)1hr. Precip / Rain Total (in.)Snow Depth
11:54 PM665147.35-2.61nnw12.17--
10:54 PM674746.1-3.48nw10.43--
9:54 PM694446.17-2.61nw12.17--
8:54 PM734047.24-4.34nnw13.03--
6:54 PM775258.01-0.87ne4.34--
5:54 PM774855.79---4.34--
4:54 PM803751.36-0.87wnw7.82--
3:54 PM833552.49-2.61wnw10.43--
2:54 PM833653.26-0.87w8.69--
1:54 PM833451.71-2.61w7.82--
12:54 PM814054.38-1.74w6.95--
11:54 AM784554.92-1.74wnw10.43--
9:54 AM715453.5-3.48nw11.3--
8:54 AM695954.06-0.87nw9.56--
7:54 AM636751.86-2.61nnw8.69--
6:54 AM607150.57-0.87nnw3.48--
5:54 AM597049.23-0.87ne3.48--
4:54 AM606949.8-0.87n5.21--
3:54 AM606749.01-0.87nne5.21--
2:54 AM616549.15-1.74ne8.69--
1:54 AM645848.92-1.74nnw8.69--
12:54 AM645748.46-1.74nne6.95--
High: 78ºf @3:54 PM    Low: 51ºf @5:54 AM     Approx. Precipitation / Rain Total: in.
Time (PDT)Temp. (ºf)Humidity (%)Dew Point (ºf)Barometer (inHG)Wind Speed (mph)Wind DirectionWind Gust (mph)1hr. Precip / Rain Total (in.)Snow Depth
11:54 PM645647.98-1.74ne7.82--
10:54 PM665247.86-2.61nnw9.56--
9:54 PM675248.79-1.74wnw6.95--
8:54 PM704849.4-1.74nw6.95--
7:54 PM744048.13-2.61nw9.56--
6:54 PM754250.33-0.87w5.21--
4:54 PM784152.37-0.87wnw6.95--
3:54 PM784051.7-1.74w8.69--
1:54 PM764251.23-3.48nnw8.69--
12:54 PM754652.8-2.61wnw8.69--
11:54 AM774352.77-3.48wnw9.56--
10:54 AM764553.11-1.74w9.56--
9:54 AM715151.95-2.61wnw7.82--
7:54 AM655849.86-1.74nw6.95--
6:54 AM548047.97-1.74ne3.48--
5:54 AM518747.27---4.34--
4:54 AM538247.65-2.61ne4.34--
3:54 AM548047.97-0.87ene4.34--
2:54 AM557747.92-0.87ene3.48--
12:54 AM626148.39-0.87ene6.08--
High: 88ºf @2:54 PM    Low: 54ºf @5:54 AM     Approx. Precipitation / Rain Total: in.
Time (PDT)Temp. (ºf)Humidity (%)Dew Point (ºf)Barometer (inHG)Wind Speed (mph)Wind DirectionWind Gust (mph)1hr. Precip / Rain Total (in.)Snow Depth
11:54 PM616448.73-0.87n4.34--
10:54 PM607652.41---2.61--
9:54 PM637755.67---3.48--
8:54 PM666654.31-0.87n3.48--
7:54 PM705151.03-1.74n10.43--
6:54 PM735153.79-3.48wnw7.82--
5:54 PM764754.29-0.87w6.08--
4:54 PM774352.77-2.61nw11.3--
3:54 PM842847.36-3.48se10.43--
2:54 PM882446.65-3.48ese13.9--
1:54 PM872546.89-3.48ese10.43--
12:54 PM853050.06-4.34ese10.43--
11:54 AM833653.26-0.87w6.08--
10:54 AM783951.01-1.74wnw6.95--
9:54 AM744450.69-1.74wnw9.56--
8:54 AM724750.65-1.74nnw6.08--
7:54 AM685350.22-0.87nw6.08--
6:54 AM567648.54-1.74ne4.34--
5:54 AM547847.3-0.87ne4.34--
4:54 AM577147.69-1.74ne3.48--
3:54 AM606046.07-0.87nw3.48--
2:54 AM596547.25-1.74ne2.61--
1:54 AM625545.64---4.34--
12:54 AM664544.04---7.82--
High: 88ºf @2:54 PM    Low: 57ºf @3:54 AM     Approx. Precipitation / Rain Total: in.
Time (PDT)Temp. (ºf)Humidity (%)Dew Point (ºf)Barometer (inHG)Wind Speed (mph)Wind DirectionWind Gust (mph)1hr. Precip / Rain Total (in.)Snow Depth
11:54 PM684143.41-1.74n7.82--
10:54 PM704145.21-2.61nnw8.69--
9:54 PM724348.27-1.74wnw9.56--
8:54 PM754049.02-1.74nw11.3--
7:54 PM783850.31-1.74nnw6.95--
6:54 PM803852.09-0.87nw9.56--
5:54 PM853251.8-2.61se10.43--
4:54 PM863252.67-4.34ese12.17--
3:54 PM863151.81-3.48se12.17--
2:54 PM882850.77-5.21ese10.43--
1:54 PM872748.94-4.34se11.3--
12:54 PM873455.2-1.74sse9.56--
10:54 AM784957.27-2.61wnw8.69--
9:54 AM745556.79-2.61nw8.69--
8:54 AM735756.85-0.87nw6.08--
6:54 AM608154.15-1.74nnw4.34--
5:54 AM578351.89-0.87ne4.34--
3:54 AM578050.89-0.87nne4.34--
1:54 AM597450.72-1.74ne4.34--
High: 90ºf @2:54 PM    Low: 52ºf @5:54 AM     Approx. Precipitation / Rain Total: in.
Time (PDT)Temp. (ºf)Humidity (%)Dew Point (ºf)Barometer (inHG)Wind Speed (mph)Wind DirectionWind Gust (mph)1hr. Precip / Rain Total (in.)Snow Depth
11:54 PM666152.16-0.87ne6.08--
10:54 PM715051.41-2.61n6.95--
9:54 PM725152.87-1.74nne6.95--
8:54 PM735354.84---3.48--
6:54 PM843452.58-0.87sse6.95--
5:54 PM873051.78-3.48se9.56--
4:54 PM873152.67-4.34se12.17--
3:54 PM892952.57-4.34ese13.03--
2:54 PM902852.47-3.48se11.3--
1:54 PM883052.64-4.34ese11.3--
12:54 PM863353.51-4.34ese11.3--
11:54 AM853554.25-2.61se9.56--
10:54 AM833754.01-0.87s7.82--
9:54 AM784856.7-0.87s3.48--
8:54 AM755155.63---3.48--
7:54 AM656854.17---2.61--
5:54 AM529249.75---2.61--
4:54 AM558650.89-0.87ne4.34--
3:54 AM568350.91-1.74nne4.34--
2:54 AM578151.23-1.74nne4.34--
1:54 AM597651.44-2.61ne4.34--
12:54 AM617352.28-1.74ene3.48--
High: 86ºf @3:54 PM    Low: 51ºf @4:54 AM     Approx. Precipitation / Rain Total: in.
Time (PDT)Temp. (ºf)Humidity (%)Dew Point (ºf)Barometer (inHG)Wind Speed (mph)Wind DirectionWind Gust (mph)1hr. Precip / Rain Total (in.)Snow Depth
11:54 PM627252.87-0.87ne3.48--
9:54 PM676454.41---2.61--
8:54 PM744752.47-0.87ne8.69--
7:54 PM784051.7-4.34ese10.43--
6:54 PM823450.83-5.21ese13.03--
5:54 PM843250.94-4.34se10.43--
3:54 PM862950.01-4.34se11.3--
2:54 PM862849.06-5.21ese12.17--
1:54 PM862950.01-3.48se10.43--
12:54 PM843049.2-3.48se13.9--
11:54 AM803751.36-4.34se13.03--
10:54 AM803952.79-2.61se9.56--
9:54 AM755356.69-0.87wnw3.48--
8:54 AM715453.5-0.87wnw6.08--
7:54 AM676153.1-0.87nw4.34--
6:54 AM578351.89-0.87n2.61--
5:54 AM519148.47---2.61--
4:54 AM518947.87-0.87n2.61--
3:54 AM538448.3-1.74nne3.48--
2:54 AM538247.65-1.74ne3.48--
12:54 AM577448.79-0.87ne3.48--
High: 81ºf @3:54 PM    Low: 56ºf @6:54 AM     Approx. Precipitation / Rain Total: in.
Time (PDT)Temp. (ºf)Humidity (%)Dew Point (ºf)Barometer (inHG)Wind Speed (mph)Wind DirectionWind Gust (mph)1hr. Precip / Rain Total (in.)Snow Depth
11:54 PM597049.23-0.87ene3.48--
10:54 PM626750.91---4.34--
9:54 PM675349.3-1.74ene5.21--
8:54 PM714447.98-2.61se10.43--
7:54 PM744048.13-6.08ese12.17--
6:54 PM783648.86-5.21ese11.3--
5:54 PM793448.21-3.48se9.56--
4:54 PM793347.42-4.34ese11.3--
3:54 PM813046.62-5.21ese12.17--
1:54 PM793548.99-6.08se14.77--
12:54 PM783648.86-6.08se13.9--
11:54 AM754149.69-3.48se10.43--
10:54 AM744551.29-1.74sse11.3--
9:54 AM704547.67-3.48ese12.17--
8:54 AM695150.11-3.48ese8.69--
7:54 AM645748.46-0.87sse4.34--
6:54 AM567648.54---0.87--
5:54 AM577248.06---4.34--
4:54 AM586646.7---2.61--
3:54 AM596848.45---6.08--
2:54 AM644139.82-2.61se7.82--
1:54 AM653637.39-4.34ese8.69--
12:54 AM654643.71-3.48ese7.82--
High: 76ºf @2:54 PM    Low: 49ºf @5:54 AM     Approx. Precipitation / Rain Total: in.
Time (PDT)Temp. (ºf)Humidity (%)Dew Point (ºf)Barometer (inHG)Wind Speed (mph)Wind DirectionWind Gust (mph)1hr. Precip / Rain Total (in.)Snow Depth
10:54 PM666051.71-4.34ese9.56--
9:54 PM675952.19-4.34ese9.56--
8:54 PM685651.71-4.34ese9.56--
7:54 PM705251.55-4.34ese9.56--
6:54 PM714950.86-3.48se9.56--
5:54 PM714649.16-4.34ese8.69--
4:54 PM744048.13-2.61se11.3--
3:54 PM763747.83-2.61se11.3--
2:54 PM763747.83-3.48se12.17--
1:54 PM764251.23-5.21se12.17--
11:54 AM764150.58-4.34se11.3--
10:54 AM724951.78-2.61se8.69--
9:54 AM734751.56-0.87ssw6.95--
8:54 AM685450.72---3.48--
7:54 AM616247.88-0.87ene4.34--
6:54 AM527644.67---3.48--
5:54 AM498143.43---4.34--
3:54 AM517744.05---2.61--
2:54 AM527644.67---2.61--
1:54 AM527945.69---0.87--
12:54 AM547345.54---2.61--
High: 80ºf @3:54 PM    Low: 49ºf @5:54 AM     Approx. Precipitation / Rain Total: in.
Time (PDT)Temp. (ºf)Humidity (%)Dew Point (ºf)Barometer (inHG)Wind Speed (mph)Wind DirectionWind Gust (mph)1hr. Precip / Rain Total (in.)Snow Depth
10:54 PM634843-2.61ese7.82--
9:54 PM653738.09-4.34ese9.56--
8:54 PM673437.7-4.34ese11.3--
7:54 PM703641.81-6.08ese12.17--
6:54 PM743645.34-4.34ese12.17--
5:54 PM773547.23-3.48se13.9--
4:54 PM773547.23-5.21se13.03--
3:54 PM803348.29-4.34ese13.9--
2:54 PM803045.76-5.21se12.17--
1:54 PM783447.34-6.08ese12.17--
12:54 PM773748.71-5.21ese11.3--
11:54 AM763949.24-4.34se9.56--
10:54 AM743947.46-0.87w6.08--
9:54 AM694345.56-1.74wnw6.95--
8:54 AM625646.12-0.87wnw4.34--
6:54 AM517543.36-1.74ne4.34--
5:54 AM497742.11-0.87ne2.61--
4:54 AM507442.04-1.74ne3.48--
3:54 AM507943.75-1.74nne4.34--
2:54 AM517744.05-1.74nne3.48--
12:54 AM575942.81-0.87ne2.61--
High: 83ºf @2:54 PM    Low: 52ºf @5:54 AM     Approx. Precipitation / Rain Total: in.
Time (PDT)Temp. (ºf)Humidity (%)Dew Point (ºf)Barometer (inHG)Wind Speed (mph)Wind DirectionWind Gust (mph)1hr. Precip / Rain Total (in.)Snow Depth
10:54 PM596647.66---3.48--
9:54 PM627152.48-1.74ne3.48--
8:54 PM657657.24---2.61--
7:54 PM706055.46-0.87wsw4.34--
6:54 PM735455.36-2.61ese6.08--
5:54 PM764351.87---3.48--
4:54 PM803549.86-0.87wnw6.95--
3:54 PM823148.35-2.61nw6.95--
2:54 PM832947.44-0.87n7.82--
1:54 PM833048.34-0.87w8.69--
12:54 PM803348.29-0.87wnw7.82--
11:54 AM773647.98-0.87w6.95--
10:54 AM724247.64-3.48wnw7.82--
9:54 AM704648.26-1.74wnw6.08--
8:54 AM665348.37-1.74nw6.95--
7:54 AM626047.95-1.74wnw4.34--
6:54 AM556945.02-0.87nnw5.21--
5:54 AM527544.32-0.87nnw3.48--
4:54 AM547144.81-0.87nnw6.95--
3:54 AM566644.8-1.74-6.08--
2:54 AM576344.53-0.87ene6.08--
1:54 AM595844.24-0.87ne7.82--
12:54 AM615544.71-1.74nne10.43--
High: 85ºf @1:54 PM    Low: 52ºf @5:54 AM     Approx. Precipitation / Rain Total: in.
Time (PDT)Temp. (ºf)Humidity (%)Dew Point (ºf)Barometer (inHG)Wind Speed (mph)Wind DirectionWind Gust (mph)1hr. Precip / Rain Total (in.)Snow Depth
11:54 PM644743.36-3.48nnw11.3--
10:54 PM664342.86-2.61nnw8.69--
9:54 PM693640.93-3.48nw14.77--
8:54 PM733039.72-3.48nw12.17--
7:54 PM762739.59-5.21nw13.9--
6:54 PM812137.37-3.48nw11.3--
5:54 PM832341.36-1.74nw7.82--
4:54 PM822542.68-2.61n8.69--
3:54 PM832745.54-2.61nnw10.43--
2:54 PM842746.39-1.74nw6.95--
1:54 PM852444.14-2.61w8.69--
12:54 PM802742.99-1.74wnw7.82--
10:54 AM744148.79-1.74w5.21--
9:54 AM715051.41-0.87wnw6.95--
8:54 AM685149.19-2.61wnw6.08--
7:54 AM646250.71---2.61--
6:54 AM567247.1---2.61--
5:54 AM527745.02-1.74ne4.34--
4:54 AM547144.81-2.61ne4.34--
3:54 AM556844.63-1.74ne3.48--
2:54 AM576344.53---3.48--
1:54 AM586144.63-0.87ne2.61--
12:54 AM615142.74-0.87e3.48--
High: 87ºf @3:54 PM    Low: 50ºf @4:54 AM     Approx. Precipitation / Rain Total: in.
Time (PDT)Temp. (ºf)Humidity (%)Dew Point (ºf)Barometer (inHG)Wind Speed (mph)Wind DirectionWind Gust (mph)1hr. Precip / Rain Total (in.)Snow Depth
11:54 PM663738.98-1.74n6.08--
10:54 PM693338.69-2.61nw6.95--
9:54 PM703339.56-1.74wnw6.08--
8:54 PM714850.31-0.87wnw3.48--
7:54 PM783548.11-0.87se2.61--
6:54 PM813550.74---4.34--
5:54 PM823047.48---6.95--
4:54 PM852444.14-2.61se7.82--
3:54 PM872344.69-1.74sse7.82--
2:54 PM862242.7-3.48se8.69--
1:54 PM862343.86-1.74s6.08--
12:54 PM852545.21-1.74se6.95--
10:54 AM803247.47-0.87nw4.34--
9:54 AM763445.59-0.87nw4.34--
8:54 AM714246.74-0.87nw3.48--
7:54 AM626148.39-0.87n2.61--
6:54 AM527042.52-0.87n3.48--
5:54 AM507140.97-1.74nne6.95--
4:54 AM506940.24-2.61ne4.34--
3:54 AM516640.05-0.87ene4.34--
2:54 AM536340.75-0.87ne3.48--
1:54 AM555940.94-0.87ne2.61--
12:54 AM585039.47-1.74ene3.48--
High: 84ºf @3:54 PM    Low: 47ºf @4:54 AM     Approx. Precipitation / Rain Total: in.
Time (PDT)Temp. (ºf)Humidity (%)Dew Point (ºf)Barometer (inHG)Wind Speed (mph)Wind DirectionWind Gust (mph)1hr. Precip / Rain Total (in.)Snow Depth
11:54 PM643938.54-1.74nne6.95--
10:54 PM644341.05-1.74ne5.21--
9:54 PM634843-1.74ene3.48--
8:54 PM684445.26-1.74ene2.61--
7:54 PM762537.62---5.21--
6:54 PM822138.19-1.74wnw8.69--
5:54 PM812440.78-1.74nw6.95--
4:54 PM822441.62-1.74w7.82--
3:54 PM842241.04-1.74w6.95--
2:54 PM842342.19-1.74sse5.21--
1:54 PM812844.8-1.74wnw6.08--
12:54 PM792742.14-0.87sw6.95--
11:54 AM763344.8-2.61nw6.95--
10:54 AM733644.45-1.74wnw6.08--
9:54 AM704044.56-1.74wnw6.08--
8:54 AM674544.95-0.87nw5.21--
7:54 AM615444.23-0.87wnw3.48--
6:54 AM507040.61-1.74ne4.34--
5:54 AM477539.49-0.87ene2.61--
4:54 AM477338.8-0.87e1.74--
3:54 AM506739.48-0.87nne3.48--
2:54 AM536139.91---3.48--
1:54 AM584737.88-0.87nne8.69--
12:54 AM594437.12-1.74nw7.82--
High: 77ºf @3:54 PM    Low: 48ºf @5:54 AM     Approx. Precipitation / Rain Total: in.
Time (PDT)Temp. (ºf)Humidity (%)Dew Point (ºf)Barometer (inHG)Wind Speed (mph)Wind DirectionWind Gust (mph)1hr. Precip / Rain Total (in.)Snow Depth
11:54 PM614137.13-4.34wnw9.56--
10:54 PM613935.86-0.87nw6.95--
9:54 PM633232.68-1.74nnw9.56--
8:54 PM672530.02-2.61nnw12.17--
6:54 PM752536.78-3.48nw9.56--
5:54 PM752435.75-4.34nw14.77--
3:54 PM772134.06-4.34nnw13.03--
2:54 PM761829.43-4.34nw13.9--
1:54 PM752233.57-4.34nw11.3--
12:54 PM732333-3.48n11.3--
11:54 AM713340.44-4.34n11.3--
10:54 AM684244.04-2.61wnw11.3--
9:54 AM655246.94-2.61nw10.43--
8:54 AM625545.64-3.48nnw8.69--
7:54 AM586245.05-1.74n6.08--
6:54 AM517744.05-0.87nw3.48--
5:54 AM488142.45---3.48--
4:54 AM507642.74-0.87w5.21--
3:54 AM517342.65---6.95--
1:54 AM556543.45-2.61n7.82--
12:54 AM576043.25-2.61nnw10.43--
High: 78ºf @3:54 PM    Low: 50ºf @5:54 AM     Approx. Precipitation / Rain Total: in.
Time (PDT)Temp. (ºf)Humidity (%)Dew Point (ºf)Barometer (inHG)Wind Speed (mph)Wind DirectionWind Gust (mph)1hr. Precip / Rain Total (in.)Snow Depth
11:54 PM595643.32-2.61nnw10.43--
10:54 PM615142.74-4.34nw11.3--
9:54 PM634641.89-2.61nw12.17--
8:54 PM664040.98-3.48nnw13.03--
7:54 PM713239.65-3.48nnw10.43--
6:54 PM762436.59-1.74nnw10.43--
5:54 PM762335.51-2.61nw10.43--
4:54 PM771931.57-3.48n9.56--
3:54 PM781831.05-3.48n12.17--
2:54 PM771728.84-3.48n12.17--
11:54 AM703440.33-4.34nw13.03--
10:54 AM664644.62-4.34nw12.17--
9:54 AM645647.98-3.48nnw10.43--
8:54 AM606146.51-3.48nw12.17--
6:54 AM537745.98-1.74nnw6.08--
5:54 AM508345.04-0.87nw6.95--
3:54 AM537545.29-1.74nnw9.56--
1:54 AM566845.59-2.61nnw9.56--
12:54 AM576545.35-2.61nnw9.56--
High: 79ºf @3:54 PM    Low: 43ºf @4:54 AM     Approx. Precipitation / Rain Total: in.
Time (PDT)Temp. (ºf)Humidity (%)Dew Point (ºf)Barometer (inHG)Wind Speed (mph)Wind DirectionWind Gust (mph)1hr. Precip / Rain Total (in.)Snow Depth
10:54 PM615745.65-3.48nw11.3--
9:54 PM635144.58-3.48nw10.43--
8:54 PM673941.22-1.74nw6.95--
7:54 PM712937.13-1.74n6.08--
6:54 PM743443.84-2.61ene6.95--
5:54 PM743141.43-3.48ese9.56--
4:54 PM752940.57-4.34e9.56--
3:54 PM792641.17-4.34se11.3--
2:54 PM782741.29-2.61sse11.3--
1:54 PM792540.15-3.48se13.03--
12:54 PM772841.38-6.08ese12.17--
11:54 AM763042.31-6.08ese12.17--
10:54 AM742939.71-4.34ese10.43--
9:54 AM723542.84-3.48ese7.82--
8:54 AM664946.28-0.87wsw2.61--
5:54 AM448138.55-1.74ne3.48--
4:54 AM438137.58-0.87n2.61--
3:54 AM467237.49---3.48--
2:54 AM486235.61-1.74ne4.34--
12:54 AM505735.37-0.87n4.34--
High: 81ºf @3:54 PM    Low: 46ºf @5:54 AM     Approx. Precipitation / Rain Total: in.
Time (PDT)Temp. (ºf)Humidity (%)Dew Point (ºf)Barometer (inHG)Wind Speed (mph)Wind DirectionWind Gust (mph)1hr. Precip / Rain Total (in.)Snow Depth
11:54 PM535235.85-1.74ne4.34--
10:54 PM554936.19-1.74n4.34--
9:54 PM594437.12-0.87e3.48--
8:54 PM643535.8---5.21--
7:54 PM722231.07-2.61ese6.95--
6:54 PM782033.67-1.74se8.69--
5:54 PM791628.97-2.61se11.3--
4:54 PM791527.4-4.34se11.3--
3:54 PM811528.98-4.34ese11.3--
2:54 PM811732.06-3.48ese10.43--
1:54 PM811732.06-2.61se6.95--
12:54 PM792135.71-2.61se6.95--
11:54 AM772437.43-1.74s6.08--
10:54 AM743544.6-0.87s4.34--
9:54 AM714045.45---4.34--
8:54 AM674947.2-0.87nw4.34--
7:54 AM605945.63-0.87ne3.48--
6:54 AM497441.08-1.74ne4.34--
5:54 AM468040.18-1.74ne4.34--
4:54 AM467939.86-2.61ne4.34--
3:54 AM467939.86-2.61nne3.48--
2:54 AM487339.76-1.74nne4.34--
1:54 AM507040.61-0.87nne4.34--
High: 79ºf @3:54 PM    Low: 45ºf @5:54 AM     Approx. Precipitation / Rain Total: in.
Time (PDT)Temp. (ºf)Humidity (%)Dew Point (ºf)Barometer (inHG)Wind Speed (mph)Wind DirectionWind Gust (mph)1hr. Precip / Rain Total (in.)Snow Depth
11:54 PM535939.06-1.74ne5.21--
10:54 PM555639.59---3.48--
9:54 PM575239.55-0.87nne3.48--
8:54 PM634138.93-0.87n6.95--
7:54 PM692935.41-4.34e10.43--
6:54 PM752334.68-2.61se9.56--
5:54 PM752334.68-4.34ese9.56--
4:54 PM752233.57-3.48se9.56--
3:54 PM792034.49-2.61se10.43--
2:54 PM781932.39-1.74s9.56--
1:54 PM782033.67-2.61s13.03--
12:54 PM762537.62-2.61sse10.43--
11:54 AM742636.93-3.48se10.43--
10:54 AM713138.83-5.21ese9.56--
9:54 AM703238.78-1.74sse6.08--
8:54 AM654945.37-0.87sse2.61--
7:54 AM596446.84---3.48--
6:54 AM468742.35-1.74n3.48--
5:54 AM458841.66---2.61--
4:54 AM468341.13-0.87nne2.61--
3:54 AM468240.82-1.74ne2.61--
2:54 AM478041.16---3.48--
1:54 AM497742.11-1.74nne3.48--
12:54 AM517443.01-0.87nne2.61--
High: 74ºf @3:54 PM    Low: 39ºf @5:54 AM     Approx. Precipitation / Rain Total: in.
Time (PDT)Temp. (ºf)Humidity (%)Dew Point (ºf)Barometer (inHG)Wind Speed (mph)Wind DirectionWind Gust (mph)1hr. Precip / Rain Total (in.)Snow Depth
11:54 PM556643.85-0.87ne3.48--
10:54 PM566343.58-0.87n3.48--
9:54 PM585742.85-0.87nne3.48--
8:54 PM595442.38-0.87nnw3.48--
7:54 PM653939.43-0.87se6.95--
6:54 PM693237.91-2.61se9.56--
5:54 PM722736.18-3.48se12.17--
4:54 PM732636.08-4.34ese12.17--
3:54 PM742535.94-4.34ese12.17--
1:54 PM732333-4.34se12.17--
12:54 PM732434.07-4.34ese12.17--
11:54 AM713038-2.61se13.03--
10:54 AM683640.04-1.74sse8.69--
9:54 AM644642.8-0.87wnw6.08--
8:54 AM585541.92-1.74wnw6.08--
5:54 AM398835.75-1.74ne4.34--
4:54 AM408636.16-2.61ne5.21--
3:54 AM418336.24-0.87ne4.34--
2:54 AM457437.22---2.61--
1:54 AM467438.18---3.48--
12:54 AM496437.36-0.87nne5.21--
High: 70ºf @2:54 PM    Low: 39ºf @6:54 AM     Approx. Precipitation / Rain Total: in.
Time (PDT)Temp. (ºf)Humidity (%)Dew Point (ºf)Barometer (inHG)Wind Speed (mph)Wind DirectionWind Gust (mph)1hr. Precip / Rain Total (in.)Snow Depth
11:54 PM516037.61-1.74nne6.08--
10:54 PM526038.55-0.87n6.08--
9:54 PM526841.77---4.34--
8:54 PM556141.8-1.74ene3.48--
7:54 PM614640.07-0.87se6.95--
4:54 PM663436.82-0.87ssw8.69--
3:54 PM673034.54-3.48se8.69--
2:54 PM702936.27-3.48ese10.43--
1:54 PM683136.23-3.48ese9.56--
12:54 PM683136.23-2.61se10.43--
11:54 AM653335.19-3.48se8.69--
10:54 AM613633.86-5.21ese9.56--
9:54 AM584134.43-4.34se10.43--
8:54 AM574938.03---4.34--
7:54 AM516338.85-0.87n3.48--
6:54 AM398635.17-1.74ne4.34--
5:54 AM398735.46-1.74nne4.34--
3:54 AM457437.22-0.87ne4.34--
2:54 AM457537.56---4.34--
1:54 AM486938.32-0.87nnw4.34--
High: 68ºf @2:54 PM    Low: 41ºf @5:54 AM     Approx. Precipitation / Rain Total: in.
Time (PDT)Temp. (ºf)Humidity (%)Dew Point (ºf)Barometer (inHG)Wind Speed (mph)Wind DirectionWind Gust (mph)1hr. Precip / Rain Total (in.)Snow Depth
11:54 PM515937.18-2.61nw13.03--
10:54 PM535436.8-1.74n10.43--
9:54 PM554936.19-2.61wnw11.3--
8:54 PM593430.67-1.74w8.69--
7:54 PM623634.74-0.87wsw7.82--
6:54 PM663738.98-2.61sse11.3--
5:54 PM634440.74-4.34ese12.17--
4:54 PM654040.09-4.34se13.03--
3:54 PM683337.82-1.74ssw8.69--
2:54 PM683337.82-1.74s13.9--
1:54 PM683237.03-3.48se13.9--
12:54 PM683035.4-6.95ese13.9--
11:54 AM673135.36-7.82ese16.51--
10:54 AM653435.94-6.95ese16.51--
9:54 AM643737.2-5.21ese12.17--
8:54 AM623634.74-5.21ese9.56--
7:54 AM555036.7---2.61--
6:54 AM456433.57-1.74n4.34--
5:54 AM417132.33-1.74ne5.21--
3:54 AM475431.23-1.74ne4.34--
2:54 AM504428.95-0.87ne4.34--
1:54 AM534029.33-0.87ne6.95--
12:54 AM563428.03-1.74nnw8.69--
High: 76ºf @2:54 PM    Low: 54ºf @4:54 AM     Approx. Precipitation / Rain Total: in.
Time (PDT)Temp. (ºf)Humidity (%)Dew Point (ºf)Barometer (inHG)Wind Speed (mph)Wind DirectionWind Gust (mph)1hr. Precip / Rain Total (in.)Snow Depth
11:54 PM573227.44-1.74nnw6.08--
10:54 PM593027.61-0.87nw6.95--
9:54 PM613835.21-1.74nw6.95--
8:54 PM652931.97---2.61--
7:54 PM692329.66---4.34--
6:54 PM751828.61-0.87s6.95--
5:54 PM762032.02-0.87sw8.69--
4:54 PM752738.74-1.74wsw11.3--
2:54 PM762739.59-3.48se14.77--
1:54 PM732938.85-4.34se12.17--
12:54 PM742737.89-5.21ese12.17--
11:54 AM713844.1-0.87sse3.48--
10:54 AM654241.34-1.74wnw6.08--
9:54 AM614841.17-1.74wnw6.95--
8:54 AM605242.32-1.74nw6.95--
7:54 AM575741.92-0.87wnw6.08--
6:54 AM556443.05-0.87n6.08--
5:54 AM556041.37-0.87ne4.34--
4:54 AM546241.28-0.87e5.21--
3:54 AM565740.98-0.87w5.21--
2:54 AM575540.99-1.74nw6.95--
1:54 AM584938.95-1.74nw6.08--
12:54 AM584637.34-1.74wnw6.95--
High: 80ºf @2:54 PM    Low: 46ºf @5:54 AM     Approx. Precipitation / Rain Total: in.
Time (PDT)Temp. (ºf)Humidity (%)Dew Point (ºf)Barometer (inHG)Wind Speed (mph)Wind DirectionWind Gust (mph)1hr. Precip / Rain Total (in.)Snow Depth
11:54 PM604236.84-0.87wnw9.56--
10:54 PM643334.32-2.61nnw10.43--
9:54 PM663336.07-2.61nnw11.3--
8:54 PM683237.03-2.61n12.17--
7:54 PM712735.33-3.48n12.17--
6:54 PM732737.03-2.61nw8.69--
5:54 PM752637.78-2.61nw10.43--
4:54 PM782438.27-2.61nne9.56--
3:54 PM782640.32-2.61nne9.56--
2:54 PM802742.99-3.48nnw10.43--
1:54 PM802642.01-3.48n11.3--
12:54 PM773043.17-3.48nw11.3--
11:54 AM743343.06-4.34nw12.17--
10:54 AM733644.45-2.61wnw9.56--
9:54 AM703943.89-1.74w7.82--
8:54 AM654442.55-2.61wnw6.95--
7:54 AM624942.62-0.87w5.21--
6:54 AM506739.48-1.74nne3.48--
5:54 AM467237.49-1.74nne4.34--
4:54 AM486837.95-2.61ne4.34--
3:54 AM526038.55-0.87ne3.48--
2:54 AM555237.7-0.87sse4.34--
1:54 AM574736.97-0.87w9.56--
12:54 AM623836.1-3.48nw11.3--
High: 80ºf @3:54 PM    Low: 54ºf @5:54 AM     Approx. Precipitation / Rain Total: in.
Time (PDT)Temp. (ºf)Humidity (%)Dew Point (ºf)Barometer (inHG)Wind Speed (mph)Wind DirectionWind Gust (mph)1hr. Precip / Rain Total (in.)Snow Depth
11:54 PM623936.76-1.74nw11.3--
10:54 PM633836.99-2.61nw7.82--
9:54 PM653536.68-3.48nw11.3--
8:54 PM693036.27-4.34nw13.03--
7:54 PM732636.08-3.48nw13.03--
6:54 PM782236.06-3.48nw14.77--
5:54 PM792135.71-4.34nw12.17--
4:54 PM792034.49-4.34nnw12.17--
3:54 PM801832.67-4.34nw13.9--
2:54 PM792236.89-4.34nw13.9--
1:54 PM772437.43-5.21nw14.77--
12:54 PM742535.94-5.21nw14.77--
11:54 AM722635.23-4.34nw14.77--
10:54 AM692733.62-5.21wnw14.77--
9:54 AM673336.94-4.34nnw13.03--
8:54 AM654040.09-2.61nne7.82--
6:54 AM574736.97-1.74n10.43--
5:54 AM544935.28-1.74n11.3--
4:54 AM574435.3-4.34nnw11.3--
3:54 AM574234.14-3.48nnw12.17--
1:54 AM555036.7-1.74wnw6.95--
12:54 AM604035.61-0.87ssw7.82--
High: 78ºf @6:54 PM    Low: 63ºf @11:54 PM     Approx. Precipitation / Rain Total: in.
Time (PDT)Temp. (ºf)Humidity (%)Dew Point (ºf)Barometer (inHG)Wind Speed (mph)Wind DirectionWind Gust (mph)1hr. Precip / Rain Total (in.)Snow Depth
11:54 PM633736.32-2.61nnw11.3--
10:54 PM643837.88-2.61nw12.17--
9:54 PM663839.66-2.61nnw10.43--
8:54 PM683539.32-2.61wnw13.03--
7:54 PM742737.89-1.74nnw9.56--
6:54 PM782337.18-2.61wnw11.3--
Past Weather Disclaimer Note regarding "Approx. Precipitation / Rain Total"

Past Weather Nearby

More Local Information

Bookmark and Share

Fall River Mills weather and traffic updates by locals

Write your own Fall River Mills, California report, forecast, or traffic update:

Please note by clicking on "Post" you acknowledge that you have read the Terms of Service and the Fall River Mills, CA report and/or forecast you are posting is in compliance with such terms. Be respectful. An inappropriate Fall River Mills, CA report and/or forecast will be removed by a moderator.
Become A Member